Location: Poughquag
(41.6090°N, 73.6820°W)
Time: 03:18:14
(UTC-04:00)

Vanguard 1 - Pass Details

Date: 04 June 2020
Orbit: 650 x 3833 km, 34.2° (Epoch: 06 July)

Event Time Altitude Azimuth Distance (km) Brightness Sun altitude
Rises 09:31:00 0° 275° (W) 6,887 13.9 43.9°
Reaches altitude 10° 09:35:07 10° 272° (W) 6,174 13.8 44.7°
Maximum altitude 09:56:09 63° 199° (SSW) 4,118 13.9 48.5°
Drops below altitude 10° 10:17:36 10° 125° (SE) 6,257 14.9 52.4°
Sets 10:21:50 0° 122° (ESE) 6,976 15.0 53.1°
